Home > Weather > Chico > Past weeks

Flag for USA Past Weather in Chico, California, USA — Yesterday and Last 2 Weeks

Now
75 °F

Clear.


Feels Like: 78 °F
Forecast: 64 / 92 °F
Wind: 3 mph from South

Location: Chico Municipal

Current Time: Aug 23, 2016 at 11:55:09 PM

Latest Report: Aug 23, 2016 at 11:15 PM


Visibility: 10 mi

Pressure: 30.02 "Hg

Humidity: 50%

Dew Point: 55 °F

Location of ChicoLocation

Past Weather in Chico — Graph

°F

Chico Temperature Yesterday

Maximum temperature yesterday: 91 °F (at 3:50 PM)
Minimum temperature yesterday: 64 °F (at 6:50 AM)
Average temperature yesterday: 78 °F

High & Low Weather Summary for the Past Weeks

 TemperatureHumidityPressure
High102 °F (Aug 14, 4:48 PM)73% (Aug 23, 4:35 AM)30.05 "Hg (Aug 23, 4:35 AM)
Low64 °F (Aug 22, 6:50 AM)12% (Aug 14, 4:48 PM)29.72 "Hg (Aug 17, 5:55 PM)
Average81 °F36%29.85 "Hg
* Reported Aug 8 10:15 PM — Aug 23 10:35 PM, Chico, Weather by CustomWeather, © 2016

Note: Actual official high and low records may vary slightly from our data, if they occured in-between our weather recording intervals... More about our weather records

Advertising

Chico Weather History for the Previous 24 Hours

Scroll right to see more
 ConditionsComfort  
Time TempWeatherWind HumidityBarometerVisibility
10:35 PM
Tue, Aug 23
77 °FClear.No wind44%30.01 "Hg10 mi
10:15 PM79 °FClear.No wind42%30.00 "Hg10 mi
9:55 PM79 °FClear.3 mph42%30.00 "Hg10 mi
9:35 PM81 °FClear.3 mph42%30.00 "Hg10 mi
9:15 PM82 °FClear.5 mph42%30.00 "Hg10 mi
8:55 PM82 °FClear.3 mph42%29.99 "Hg10 mi
8:35 PM82 °FSunny.3 mph45%29.98 "Hg10 mi
8:15 PM82 °FSunny.5 mph45%29.98 "Hg10 mi
7:55 PM84 °FSunny.5 mph43%29.97 "Hg10 mi
7:35 PM84 °FSunny.5 mph40%29.97 "Hg10 mi
7:15 PM84 °FSunny.7 mph40%29.96 "Hg10 mi
6:55 PM86 °FSunny.7 mph35%29.96 "Hg10 mi
6:35 PM86 °FSunny.10 mph35%29.96 "Hg10 mi
5:55 PM86 °FSunny.13 mph35%29.96 "Hg10 mi
4:50 PM90 °FSunny.12 mph26%29.96 "Hg40 mi
3:45 PM86 °FSunny.14 mph29%29.98 "Hg40 mi
2:45 PM86 °FSunny.7 mph29%30.00 "Hg40 mi
1:45 PM84 °FSunny.12 mph31%30.01 "Hg40 mi
12:58 PM82 °FSunny.6 mph32%30.03 "Hg40 mi
11:47 AM77 °FSunny.9 mph42%30.04 "Hg40 mi
10:50 AM73 °FSunny.6 mph47%30.05 "Hg40 mi
9:58 AM72 °FSunny.6 mph47%30.05 "Hg40 mi
8:47 AM68 °FSunny.No wind53%30.04 "Hg40 mi
7:51 AM64 °FSunny.6 mph64%30.03 "Hg40 mi
6:47 AM64 °FClear.6 mph64%30.01 "Hg25 mi
5:35 AM64 °FClear.5 mph68%29.97 "Hg10 mi
5:15 AM66 °FClear.3 mph64%29.97 "Hg10 mi
4:55 AM64 °FPassing clouds.No wind73%29.96 "Hg10 mi
4:35 AM64 °FClear.No wind73%29.96 "Hg10 mi
4:15 AM64 °FPassing clouds.3 mph68%29.96 "Hg10 mi
3:55 AM64 °FClear.3 mph68%29.96 "Hg10 mi
3:35 AM66 °FPassing clouds.No wind64%29.96 "Hg10 mi
3:15 AM68 °FPassing clouds.3 mph60%29.95 "Hg10 mi
2:55 AM70 °FClear.5 mph50%29.95 "Hg10 mi
2:35 AM72 °FClear.7 mph47%29.94 "Hg10 mi
2:15 AM72 °FClear.5 mph47%29.94 "Hg10 mi
1:55 AM72 °FClear.7 mph47%29.94 "Hg10 mi
1:35 AM72 °FClear.6 mph47%29.93 "Hg10 mi
1:15 AM73 °FClear.6 mph44%29.93 "Hg10 mi
12:55 AM73 °FClear.7 mph44%29.93 "Hg10 mi
12:35 AM73 °FClear.8 mph44%29.92 "Hg10 mi
12:15 AM73 °FClear.10 mph47%29.92 "Hg10 mi
11:55 PM
Mon, Aug 22
75 °FClear.8 mph44%29.92 "Hg10 mi
11:35 PM75 °FClear.8 mph47%29.91 "Hg10 mi
11:15 PM77 °FClear.8 mph44%29.91 "Hg10 mi
Weather by CustomWeather, © 2016

See weather overviewHow to use our weather pages